CFG2016 EDDF-KJFK

Flight info

Callsign CFG2016
Flight time N/A
Altitude 36000
Route OBOKA3W OBOKA Z28 DIBIR DCT BUDIP DCT RAVLO Y70 OTBED L60 PENIL M144 BAGSO DCT NEBIN/M082F370 DCT 54N020W 54N030W 5330N04000W 52N050W DCT TUDEP/N0465F380 N518B BRADD DCT LARIE DCT JAWZZ DCT SEY PARCH4
Aircraft A339/H-SADE1E2E3GHIJ3J5M1P2RWXY/LB2D1

Departure

Time 2026-04-14 05:33
Airport Frankfurt Main Airport (EDDF)

Arrival

Time N/A
Airport John F. Kennedy International Airport (KJFK)
Time Latitude Longitude Altitude Speed Heading
2026-04-14 05:17 50.04808 8.57702 381 ft 0 kts 233°
2026-04-14 05:26 50.04818 8.57722 382 ft 3 kts 233°
2026-04-14 05:26 50.04834 8.57755 382 ft 3 kts 233°
2026-04-14 05:26 50.04850 8.57788 382 ft 3 kts 233°
2026-04-14 05:26 50.04865 8.57820 382 ft 2 kts 233°
2026-04-14 05:27 50.04868 8.57825 382 ft 0 kts 233°
2026-04-14 05:30 50.04866 8.57823 382 ft 0 kts 223°
2026-04-14 05:30 50.04854 8.57825 382 ft 2 kts 147°
2026-04-14 05:30 50.04827 8.57869 382 ft 8 kts 139°
2026-04-14 05:31 50.04757 8.57929 382 ft 14 kts 159°
2026-04-14 05:31 50.04648 8.57992 381 ft 18 kts 161°
2026-04-14 05:31 50.04545 8.58053 382 ft 14 kts 161°
2026-04-14 05:31 50.04467 8.58099 381 ft 10 kts 162°
2026-04-14 05:32 50.04396 8.58103 379 ft 10 kts 200°
2026-04-14 05:32 50.04348 8.58008 378 ft 11 kts 249°
2026-04-14 05:32 50.04298 8.57798 373 ft 43 kts 250°
2026-04-14 05:32 50.04120 8.57050 369 ft 102 kts 251°
2026-04-14 05:33 50.03810 8.55754 351 ft 152 kts 251°
2026-04-14 05:33 50.03402 8.54018 535 ft 177 kts 252°
2026-04-14 05:33 50.02991 8.52324 1226 ft 169 kts 252°
2026-04-14 05:34 50.01782 8.48994 2136 ft 192 kts 223°
2026-04-14 05:34 50.00812 8.47484 2476 ft 201 kts 249°
2026-04-14 05:34 50.00671 8.45391 2731 ft 199 kts 295°
2026-04-14 05:34 50.01523 8.43766 2987 ft 204 kts 328°
2026-04-14 05:35 50.02746 8.42474 3278 ft 219 kts 327°
2026-04-14 05:35 50.03998 8.40986 3569 ft 236 kts 323°
2026-04-14 05:35 50.05278 8.39243 3963 ft 248 kts 320°
2026-04-14 05:35 50.06536 8.37368 4572 ft 252 kts 317°
2026-04-14 05:36 50.07768 8.35430 5199 ft 254 kts 316°
2026-04-14 05:36 50.08989 8.33445 5785 ft 258 kts 314°
2026-04-14 05:36 50.10221 8.31404 6356 ft 262 kts 314°
2026-04-14 05:36 50.11458 8.29318 6930 ft 265 kts 313°
2026-04-14 05:37 50.12702 8.27205 7509 ft 268 kts 313°
2026-04-14 05:37 50.13956 8.25063 8092 ft 271 kts 313°
2026-04-14 05:37 50.15242 8.22856 8670 ft 274 kts 312°
2026-04-14 05:37 50.16520 8.20662 9238 ft 277 kts 311°
2026-04-14 05:38 50.17818 8.18428 9793 ft 281 kts 311°
2026-04-14 05:38 50.19136 8.16156 10336 ft 284 kts 310°
2026-04-14 05:38 50.20490 8.13816 10621 ft 298 kts 310°
2026-04-14 05:38 50.21901 8.11369 10880 ft 312 kts 310°
2026-04-14 05:39 50.23387 8.08791 11139 ft 326 kts 310°
2026-04-14 05:39 50.24927 8.06121 11527 ft 335 kts 310°
2026-04-14 05:39 50.26483 8.03422 12075 ft 339 kts 310°
2026-04-14 05:39 50.28073 8.00661 12659 ft 342 kts 310°
2026-04-14 05:40 50.29652 7.97917 13204 ft 345 kts 310°
2026-04-14 05:40 50.31268 7.95102 13727 ft 349 kts 309°
2026-04-14 05:40 50.32884 7.92286 14249 ft 353 kts 309°
2026-04-14 05:40 50.34527 7.89417 14803 ft 356 kts 309°
2026-04-14 05:41 50.36190 7.86509 15374 ft 359 kts 309°
2026-04-14 05:41 50.37833 7.83634 15936 ft 361 kts 309°
2026-04-14 05:41 50.39506 7.80702 16490 ft 363 kts 309°
2026-04-14 05:41 50.41201 7.77732 17049 ft 365 kts 309°
2026-04-14 05:42 50.42885 7.74775 17581 ft 368 kts 309°
2026-04-14 05:42 50.44588 7.71780 18114 ft 370 kts 309°
2026-04-14 05:42 50.46304 7.68758 18638 ft 373 kts 309°
2026-04-14 05:42 50.48021 7.65737 19130 ft 376 kts 309°
2026-04-14 05:43 50.49783 7.62630 19625 ft 379 kts 309°
2026-04-14 05:43 50.51517 7.59563 20137 ft 381 kts 309°
2026-04-14 05:43 50.53281 7.56445 20592 ft 385 kts 309°
2026-04-14 05:43 50.55074 7.53278 21024 ft 389 kts 309°
2026-04-14 05:44 50.56878 7.50081 21483 ft 391 kts 309°
2026-04-14 05:44 50.58674 7.46885 21965 ft 393 kts 309°
2026-04-14 05:44 50.60477 7.43682 22424 ft 395 kts 309°
2026-04-14 05:44 50.62300 7.40444 22810 ft 399 kts 309°
2026-04-14 05:45 50.64124 7.37194 23208 ft 402 kts 309°
2026-04-14 05:45 50.65986 7.33872 23645 ft 403 kts 309°
2026-04-14 05:45 50.67839 7.30563 24085 ft 405 kts 309°
2026-04-14 05:45 50.69701 7.27231 24523 ft 406 kts 309°
2026-04-14 05:46 50.71553 7.23914 24906 ft 408 kts 309°
2026-04-14 05:46 50.73423 7.20560 25290 ft 410 kts 309°
2026-04-14 05:46 50.75298 7.17191 25689 ft 412 kts 309°
2026-04-14 05:46 50.77197 7.13770 26080 ft 413 kts 310°
2026-04-14 05:47 50.79084 7.10374 26448 ft 415 kts 310°
2026-04-14 05:47 50.81000 7.06925 26794 ft 417 kts 310°
2026-04-14 05:47 50.82883 7.03528 27124 ft 419 kts 310°
2026-04-14 05:47 50.84822 7.00029 27461 ft 420 kts 310°
2026-04-14 05:48 50.86731 6.96576 27801 ft 421 kts 310°
2026-04-14 05:48 50.88670 6.93063 28118 ft 423 kts 310°
2026-04-14 05:48 50.90584 6.89581 28425 ft 425 kts 310°
2026-04-14 05:48 50.92533 6.86040 28751 ft 426 kts 310°
2026-04-14 05:49 50.94460 6.82533 29057 ft 427 kts 310°
2026-04-14 05:49 50.96421 6.78962 29347 ft 429 kts 310°
2026-04-14 05:49 50.98363 6.75414 29624 ft 431 kts 310°
2026-04-14 05:49 51.00340 6.71799 29907 ft 432 kts 310°
2026-04-14 05:50 51.02306 6.68193 30182 ft 434 kts 310°
2026-04-14 05:50 51.04266 6.64596 30412 ft 436 kts 310°
2026-04-14 05:50 51.06242 6.60967 30651 ft 438 kts 310°
2026-04-14 05:50 51.08199 6.57274 30871 ft 439 kts 308°
2026-04-14 05:51 51.10041 6.53407 31120 ft 440 kts 305°
2026-04-14 05:51 51.11813 6.49396 31357 ft 442 kts 304°
2026-04-14 05:51 51.13557 6.45373 31573 ft 443 kts 304°
2026-04-14 05:51 51.15297 6.41343 31768 ft 445 kts 304°
2026-04-14 05:52 51.17033 6.37318 31963 ft 446 kts 304°
2026-04-14 05:52 51.18797 6.33229 32209 ft 446 kts 303°
2026-04-14 05:52 51.20553 6.29152 32551 ft 444 kts 303°
2026-04-14 05:52 51.22279 6.25137 32898 ft 442 kts 303°
2026-04-14 05:53 51.24017 6.21087 33187 ft 441 kts 303°
2026-04-14 05:53 51.25740 6.17068 33465 ft 440 kts 303°
2026-04-14 05:53 51.27464 6.13046 33674 ft 440 kts 303°
2026-04-14 05:53 51.29158 6.09016 33956 ft 438 kts 302°
2026-04-14 05:54 51.30814 6.04967 34214 ft 437 kts 301°
2026-04-14 05:54 51.32464 6.00911 34415 ft 438 kts 301°
2026-04-14 05:54 51.34105 5.96873 34604 ft 439 kts 302°
2026-04-14 05:54 51.35783 5.92799 34661 ft 441 kts 303°
2026-04-14 05:55 51.37590 5.88811 34789 ft 442 kts 306°
2026-04-14 05:55 51.39511 5.85016 34891 ft 444 kts 309°
2026-04-14 05:55 51.41568 5.81351 35018 ft 445 kts 311°
2026-04-14 05:55 51.43707 5.77721 35121 ft 445 kts 312°
2026-04-14 05:56 51.45828 5.74154 35230 ft 445 kts 312°
2026-04-14 05:56 51.47957 5.70574 35329 ft 446 kts 312°
2026-04-14 05:56 51.50075 5.66998 35473 ft 446 kts 313°
2026-04-14 05:56 51.52208 5.63393 35636 ft 445 kts 313°
2026-04-14 05:57 51.56455 5.56194 35841 ft 447 kts 313°
2026-04-14 05:57 51.58575 5.52588 35978 ft 447 kts 313°
2026-04-14 05:57 51.60712 5.48950 36053 ft 449 kts 313°
2026-04-14 05:58 51.64974 5.41675 36065 ft 449 kts 313°
2026-04-14 05:58 51.69267 5.34324 36044 ft 449 kts 311°
2026-04-14 05:59 51.73494 5.27062 36055 ft 448 kts 312°
2026-04-14 05:59 51.77758 5.19717 36059 ft 448 kts 312°
2026-04-14 06:00 51.81982 5.12418 36048 ft 447 kts 312°
2026-04-14 06:00 51.86229 5.05061 36074 ft 448 kts 312°
2026-04-14 06:01 51.90438 4.97744 36054 ft 447 kts 312°
2026-04-14 06:01 51.94657 4.90393 36063 ft 447 kts 312°
2026-04-14 06:02 51.98835 4.83088 36062 ft 444 kts 312°
2026-04-14 06:02 52.03046 4.75702 36064 ft 444 kts 312°
2026-04-14 06:03 52.07194 4.68408 36043 ft 444 kts 311°
2026-04-14 06:04 52.13465 4.57337 36052 ft 443 kts 311°
2026-04-14 06:04 52.17619 4.49974 36053 ft 442 kts 311°
2026-04-14 06:05 52.21752 4.42628 36060 ft 441 kts 312°
2026-04-14 06:05 52.25894 4.35248 36058 ft 442 kts 311°
2026-04-14 06:06 52.30013 4.27879 36033 ft 439 kts 311°
2026-04-14 06:06 52.34096 4.20564 36199 ft 439 kts 311°
2026-04-14 06:06 52.36138 4.16890 35930 ft 436 kts 311°
2026-04-14 06:07 52.38164 4.13242 36143 ft 436 kts 311°
2026-04-14 06:07 52.42217 4.05929 36071 ft 434 kts 311°
2026-04-14 06:08 52.46254 3.98629 36081 ft 433 kts 311°
2026-04-14 06:08 52.50301 3.91287 36076 ft 433 kts 311°
2026-04-14 06:09 52.54320 3.83974 36050 ft 433 kts 311°
2026-04-14 06:09 52.58343 3.76632 36052 ft 433 kts 311°
2026-04-14 06:10 52.62355 3.69279 36093 ft 432 kts 311°
2026-04-14 06:10 52.66346 3.61952 36026 ft 433 kts 311°
2026-04-14 06:11 52.70345 3.54583 36042 ft 432 kts 311°
2026-04-14 06:11 52.74337 3.47206 36044 ft 431 kts 311°
2026-04-14 06:12 52.78310 3.39844 36050 ft 432 kts 311°
2026-04-14 06:12 52.82272 3.32462 36109 ft 432 kts 310°
2026-04-14 06:13 52.86199 3.24979 36061 ft 431 kts 307°
2026-04-14 06:13 52.89522 3.16812 36050 ft 429 kts 300°
2026-04-14 06:14 52.92086 3.07933 36041 ft 429 kts 291°
2026-04-14 06:14 52.93058 3.03321 35776 ft 429 kts 288°
2026-04-14 06:14 52.93833 2.98535 36149 ft 431 kts 285°
2026-04-14 06:14 52.94485 2.93755 35822 ft 430 kts 284°
2026-04-14 06:15 52.95121 2.88918 36204 ft 431 kts 284°
2026-04-14 06:15 52.96392 2.79199 36075 ft 429 kts 284°
2026-04-14 06:16 52.97637 2.69595 36037 ft 429 kts 284°
2026-04-14 06:16 52.98886 2.59902 36038 ft 429 kts 284°
2026-04-14 06:17 53.00123 2.50250 36033 ft 429 kts 284°
2026-04-14 06:17 53.01351 2.40604 36040 ft 429 kts 284°
2026-04-14 06:18 53.02569 2.30952 36042 ft 429 kts 283°
2026-04-14 06:18 53.03776 2.21313 36045 ft 428 kts 283°
2026-04-14 06:19 53.04978 2.11653 36050 ft 427 kts 283°
2026-04-14 06:19 53.06170 2.02043 36020 ft 426 kts 283°
2026-04-14 06:20 53.07351 1.92447 36017 ft 426 kts 283°
2026-04-14 06:20 53.08530 1.82766 36031 ft 426 kts 283°
2026-04-14 06:21 53.09692 1.73154 36050 ft 426 kts 283°
2026-04-14 06:21 53.10846 1.63526 36058 ft 426 kts 283°
2026-04-14 06:22 53.11991 1.53894 36022 ft 425 kts 283°
2026-04-14 06:22 53.13129 1.44233 36024 ft 426 kts 284°
2026-04-14 06:23 53.14261 1.34601 36021 ft 425 kts 283°
2026-04-14 06:23 53.15382 1.24942 36051 ft 425 kts 283°
2026-04-14 06:24 53.16495 1.15305 36055 ft 425 kts 283°
2026-04-14 06:24 53.17598 1.05674 36087 ft 425 kts 283°
2026-04-14 06:25 53.18692 0.96042 36061 ft 423 kts 283°
2026-04-14 06:25 53.19774 0.86446 36043 ft 423 kts 283°
2026-04-14 06:26 53.20846 0.76851 36038 ft 423 kts 283°
2026-04-14 06:26 53.21909 0.67245 35861 ft 422 kts 283°
2026-04-14 06:27 53.22970 0.57629 36213 ft 425 kts 283°
2026-04-14 06:27 53.23499 0.52804 36108 ft 423 kts 283°
2026-04-14 06:27 53.24023 0.47988 35872 ft 422 kts 283°
2026-04-14 06:28 53.25074 0.38341 36005 ft 424 kts 283°
2026-04-14 06:28 53.26116 0.28693 35984 ft 424 kts 282°
2026-04-14 06:29 53.27141 0.19090 36000 ft 423 kts 283°
2026-04-14 06:29 53.28158 0.09461 36010 ft 424 kts 282°
2026-04-14 06:30 53.29179 -0.00266 36027 ft 423 kts 283°
2026-04-14 06:30 53.30185 -0.09838 35984 ft 422 kts 283°
2026-04-14 06:31 53.31184 -0.19520 36002 ft 422 kts 283°
2026-04-14 06:31 53.32168 -0.29128 36017 ft 421 kts 282°
2026-04-14 06:32 53.33140 -0.38741 35985 ft 421 kts 283°
2026-04-14 06:32 53.34109 -0.48341 36018 ft 421 kts 283°
2026-04-14 06:33 53.35076 -0.58000 36019 ft 421 kts 283°
2026-04-14 06:33 53.36030 -0.67636 36030 ft 420 kts 282°
2026-04-14 06:34 53.37448 -0.82058 35994 ft 420 kts 282°
2026-04-14 06:34 53.38377 -0.91653 36000 ft 420 kts 282°
2026-04-14 06:35 53.39302 -1.01266 36019 ft 419 kts 282°
2026-04-14 06:35 53.40216 -1.10836 35992 ft 418 kts 282°
2026-04-14 06:36 53.41118 -1.20394 36011 ft 418 kts 282°
2026-04-14 06:36 53.42015 -1.29982 36006 ft 416 kts 283°
2026-04-14 06:37 53.42907 -1.39540 35982 ft 416 kts 282°
2026-04-14 06:37 53.43782 -1.49084 35991 ft 417 kts 282°
2026-04-14 06:38 53.44657 -1.58670 35982 ft 416 kts 282°
2026-04-14 06:38 53.45523 -1.68269 35961 ft 416 kts 281°
2026-04-14 06:39 53.46375 -1.77821 35953 ft 415 kts 282°
2026-04-14 06:39 53.47227 -1.87376 35947 ft 416 kts 282°
2026-04-14 06:40 53.48066 -1.96915 35951 ft 416 kts 282°
2026-04-14 06:40 53.48896 -2.06496 35965 ft 414 kts 282°
2026-04-14 06:41 53.49711 -2.15994 35959 ft 414 kts 281°
2026-04-14 06:41 53.50531 -2.25554 35958 ft 414 kts 282°
2026-04-14 06:42 53.51342 -2.35084 35986 ft 414 kts 282°
2026-04-14 06:42 53.52145 -2.44634 35985 ft 414 kts 282°
2026-04-14 06:43 53.52932 -2.54136 35980 ft 413 kts 282°
2026-04-14 06:43 53.53711 -2.63655 35961 ft 413 kts 282°
2026-04-14 06:44 53.54483 -2.73154 35967 ft 413 kts 281°
2026-04-14 06:44 53.55250 -2.82719 35981 ft 412 kts 281°
2026-04-14 06:45 53.56006 -2.92227 35974 ft 410 kts 281°
2026-04-14 06:45 53.56748 -3.01673 35983 ft 410 kts 281°
2026-04-14 06:46 53.57853 -3.15930 35974 ft 411 kts 281°
2026-04-14 06:47 53.58584 -3.25448 35972 ft 410 kts 281°
2026-04-14 06:47 53.59300 -3.34921 35951 ft 409 kts 281°
2026-04-14 06:48 53.60007 -3.44387 35979 ft 408 kts 281°
2026-04-14 06:48 53.60699 -3.53773 35921 ft 407 kts 281°
2026-04-14 06:49 53.61389 -3.63218 35950 ft 406 kts 281°
2026-04-14 06:49 53.61886 -3.72651 35935 ft 406 kts 278°
2026-04-14 06:50 53.62279 -3.82086 35930 ft 406 kts 277°
2026-04-14 06:50 53.62661 -3.91516 35904 ft 405 kts 277°
2026-04-14 06:51 53.63039 -4.00975 35891 ft 405 kts 277°
2026-04-14 06:51 53.63412 -4.10421 35922 ft 404 kts 277°
2026-04-14 06:52 53.63770 -4.19743 35899 ft 402 kts 277°
2026-04-14 06:52 53.64120 -4.29138 35888 ft 402 kts 277°
2026-04-14 06:53 53.64465 -4.38463 35916 ft 402 kts 277°
2026-04-14 06:53 53.64807 -4.47872 35856 ft 402 kts 277°
2026-04-14 06:54 53.65140 -4.57178 35901 ft 400 kts 277°
2026-04-14 06:54 53.65464 -4.66549 35902 ft 400 kts 276°
2026-04-14 06:55 53.65769 -4.75819 35904 ft 398 kts 276°
2026-04-14 06:55 53.66078 -4.85141 35886 ft 398 kts 276°
2026-04-14 06:56 53.66384 -4.94397 35887 ft 397 kts 276°
2026-04-14 06:56 53.66677 -5.03651 35874 ft 396 kts 276°
2026-04-14 06:57 53.66964 -5.12902 35874 ft 397 kts 276°
2026-04-14 06:57 53.67242 -5.22179 35869 ft 397 kts 276°
2026-04-14 06:58 53.67510 -5.31444 35868 ft 396 kts 276°
2026-04-14 06:58 53.67765 -5.40654 35871 ft 396 kts 276°
2026-04-14 06:59 53.68013 -5.49939 35860 ft 395 kts 276°
2026-04-14 06:59 53.68218 -5.59175 35861 ft 395 kts 275°
2026-04-14 07:00 53.68398 -5.68390 35855 ft 395 kts 274°
2026-04-14 07:00 53.68571 -5.77588 35850 ft 394 kts 275°
2026-04-14 07:01 53.68740 -5.86824 35836 ft 393 kts 275°
2026-04-14 07:01 53.68897 -5.95990 35846 ft 395 kts 275°
2026-04-14 07:02 53.69049 -6.05202 35830 ft 394 kts 275°
2026-04-14 07:02 53.69194 -6.14445 35820 ft 393 kts 275°
2026-04-14 07:03 53.69333 -6.23644 35832 ft 395 kts 274°
2026-04-14 07:03 53.69459 -6.32840 35839 ft 393 kts 274°
2026-04-14 07:04 53.69587 -6.41977 35828 ft 392 kts 274°
2026-04-14 07:04 53.69703 -6.51157 35812 ft 392 kts 274°
2026-04-14 07:05 53.69812 -6.60321 35820 ft 391 kts 275°
2026-04-14 07:05 53.69910 -6.69460 35766 ft 389 kts 273°
2026-04-14 07:06 53.70004 -6.78531 35784 ft 390 kts 274°
2026-04-14 07:06 53.70097 -6.87631 35769 ft 389 kts 273°
2026-04-14 07:07 53.70174 -6.96758 35777 ft 389 kts 274°
2026-04-14 07:07 53.70247 -7.05842 35744 ft 387 kts 272°
2026-04-14 07:08 53.70313 -7.14877 35763 ft 387 kts 273°
2026-04-14 07:08 53.70370 -7.23924 35761 ft 388 kts 274°
2026-04-14 07:09 53.70426 -7.33021 35742 ft 387 kts 273°
2026-04-14 07:09 53.70471 -7.42093 35747 ft 388 kts 273°
2026-04-14 07:10 53.70513 -7.51136 35761 ft 387 kts 273°
2026-04-14 07:10 53.70542 -7.60141 35752 ft 386 kts 273°
2026-04-14 07:11 53.70567 -7.69180 35751 ft 386 kts 272°
2026-04-14 07:11 53.70587 -7.78233 35719 ft 386 kts 272°
2026-04-14 07:12 53.70598 -7.87277 35735 ft 386 kts 272°
2026-04-14 07:12 53.70605 -7.96260 35727 ft 386 kts 271°
2026-04-14 07:13 53.70602 -8.05269 35726 ft 386 kts 272°
2026-04-14 07:13 53.70592 -8.14304 35723 ft 385 kts 272°
2026-04-14 07:14 53.70579 -8.23338 35704 ft 386 kts 271°
2026-04-14 07:14 53.70560 -8.32333 35719 ft 385 kts 272°
2026-04-14 07:15 53.70529 -8.41374 35708 ft 386 kts 271°
2026-04-14 07:15 53.70497 -8.50376 35691 ft 384 kts 271°
2026-04-14 07:16 53.70451 -8.59360 35697 ft 385 kts 271°
2026-04-14 07:16 53.70399 -8.68401 35689 ft 385 kts 270°
2026-04-14 07:17 53.70344 -8.77415 35700 ft 384 kts 271°
2026-04-14 07:17 53.70280 -8.86370 35693 ft 385 kts 270°
2026-04-14 07:18 53.70211 -8.95392 35688 ft 384 kts 270°
2026-04-14 07:18 53.70139 -9.04345 35692 ft 384 kts 270°
2026-04-14 07:19 53.70056 -9.13352 35689 ft 384 kts 270°
2026-04-14 07:19 53.69969 -9.22317 35694 ft 384 kts 270°
2026-04-14 07:20 53.69872 -9.31297 35680 ft 384 kts 269°
2026-04-14 07:20 53.69769 -9.40226 35672 ft 384 kts 269°
2026-04-14 07:21 53.69656 -9.49211 35659 ft 383 kts 270°
2026-04-14 07:21 53.69541 -9.58157 35660 ft 383 kts 269°
2026-04-14 07:22 53.69419 -9.67075 35658 ft 383 kts 269°
2026-04-14 07:22 53.69294 -9.76052 35641 ft 382 kts 268°
2026-04-14 07:23 53.69159 -9.84984 35633 ft 383 kts 268°
2026-04-14 07:23 53.69015 -9.93965 35627 ft 382 kts 268°
2026-04-14 07:24 53.68866 -10.02913 35630 ft 383 kts 268°
2026-04-14 07:24 53.68709 -10.11856 35640 ft 383 kts 269°
2026-04-14 07:25 53.68551 -10.20779 35636 ft 382 kts 268°
2026-04-14 07:25 53.68378 -10.29726 35636 ft 382 kts 268°
2026-04-14 07:26 53.68205 -10.38634 35630 ft 382 kts 268°
2026-04-14 07:26 53.68019 -10.47542 35628 ft 382 kts 268°
2026-04-14 07:27 53.67831 -10.56506 35627 ft 382 kts 268°
2026-04-14 07:27 53.67636 -10.65416 35624 ft 381 kts 267°
2026-04-14 07:28 53.67437 -10.74326 35621 ft 380 kts 266°
2026-04-14 07:28 53.67227 -10.83251 35617 ft 381 kts 266°
2026-04-14 07:29 53.67016 -10.92090 35615 ft 381 kts 266°
2026-04-14 07:29 53.66790 -11.01036 35615 ft 380 kts 266°
2026-04-14 07:30 53.66560 -11.09898 35615 ft 380 kts 266°
2026-04-14 07:30 53.66331 -11.18777 35605 ft 380 kts 266°
2026-04-14 07:31 53.66090 -11.27624 35601 ft 380 kts 265°
2026-04-14 07:31 53.65841 -11.36479 35614 ft 381 kts 265°
2026-04-14 07:32 53.65588 -11.45397 35614 ft 379 kts 266°
2026-04-14 07:32 53.65331 -11.54229 35604 ft 379 kts 266°
2026-04-14 07:33 53.65064 -11.63094 35600 ft 379 kts 265°
2026-04-14 07:33 53.64790 -11.71925 35601 ft 379 kts 264°
2026-04-14 07:34 53.64227 -11.89619 35593 ft 379 kts 264°
2026-04-14 07:35 53.63936 -11.98414 35580 ft 379 kts 264°
2026-04-14 07:35 53.63636 -12.07236 35565 ft 378 kts 264°
2026-04-14 07:36 53.63332 -12.16072 35573 ft 378 kts 264°
2026-04-14 07:36 53.63023 -12.24885 35566 ft 379 kts 264°
2026-04-14 07:37 53.62704 -12.33652 35559 ft 377 kts 264°
2026-04-14 07:37 53.62380 -12.42454 35562 ft 378 kts 264°
2026-04-14 07:38 53.62055 -12.51281 35569 ft 379 kts 263°
2026-04-14 07:38 53.61719 -12.60053 35555 ft 378 kts 263°
2026-04-14 07:39 53.61372 -12.68920 35563 ft 378 kts 263°
2026-04-14 07:39 53.61026 -12.77677 35567 ft 378 kts 262°
2026-04-14 07:40 53.60670 -12.86491 35555 ft 378 kts 263°
2026-04-14 07:40 53.60302 -12.95309 35557 ft 378 kts 263°
2026-04-14 07:41 53.59938 -13.04096 35554 ft 378 kts 262°
2026-04-14 07:41 53.59564 -13.12912 35552 ft 380 kts 262°
2026-04-14 07:42 53.59181 -13.21737 35545 ft 380 kts 262°
2026-04-14 07:42 53.58787 -13.30538 35548 ft 379 kts 262°
2026-04-14 07:43 53.58398 -13.39383 35544 ft 380 kts 261°
2026-04-14 07:43 53.57993 -13.48227 35531 ft 379 kts 262°
2026-04-14 07:44 53.57585 -13.57034 35533 ft 379 kts 261°
2026-04-14 07:44 53.57171 -13.65819 35531 ft 380 kts 261°
2026-04-14 07:45 53.56747 -13.74648 35527 ft 378 kts 260°
2026-04-14 07:45 53.56321 -13.83446 35524 ft 378 kts 261°
2026-04-14 07:46 53.55890 -13.92175 35519 ft 378 kts 260°
2026-04-14 07:46 53.55445 -14.00991 35515 ft 378 kts 260°
2026-04-14 07:47 53.55000 -14.09750 35511 ft 379 kts 259°
2026-04-14 07:47 53.54542 -14.18543 35515 ft 378 kts 260°
2026-04-14 07:48 53.54085 -14.27308 35498 ft 379 kts 260°
2026-04-14 07:48 53.53615 -14.36078 35514 ft 377 kts 260°
2026-04-14 07:49 53.53150 -14.44827 35507 ft 378 kts 259°
2026-04-14 07:49 53.52665 -14.53606 35488 ft 378 kts 259°
2026-04-14 07:50 53.52183 -14.62385 35497 ft 380 kts 259°
2026-04-14 07:50 53.51682 -14.71226 35496 ft 380 kts 258°
2026-04-14 07:51 53.51183 -14.79971 35477 ft 379 kts 258°
2026-04-14 07:51 53.50725 -14.88810 35491 ft 382 kts 260°
2026-04-14 07:52 53.50666 -14.97710 35496 ft 386 kts 264°
2026-04-14 07:52 53.51066 -15.06705 35485 ft 390 kts 268°
2026-04-14 07:53 53.51949 -15.15760 35494 ft 393 kts 272°
2026-04-14 07:53 53.53018 -15.24769 35482 ft 394 kts 272°
2026-04-14 07:54 53.54089 -15.33772 35466 ft 395 kts 272°
2026-04-14 07:54 53.55157 -15.42800 35464 ft 395 kts 272°
2026-04-14 07:55 53.56221 -15.51817 35462 ft 396 kts 272°
2026-04-14 07:55 53.57284 -15.60889 35454 ft 398 kts 271°
2026-04-14 07:56 53.58347 -15.70019 35446 ft 398 kts 271°
2026-04-14 07:56 53.59399 -15.79133 35451 ft 397 kts 271°
2026-04-14 07:57 53.60445 -15.88231 35425 ft 399 kts 270°
2026-04-14 07:57 53.61484 -15.97381 35439 ft 399 kts 270°
2026-04-14 07:58 53.62519 -16.06515 35445 ft 400 kts 270°
2026-04-14 07:58 53.63548 -16.15692 35426 ft 401 kts 270°
2026-04-14 07:59 53.64570 -16.24874 35426 ft 403 kts 270°
2026-04-14 07:59 53.65589 -16.34074 35432 ft 403 kts 270°
2026-04-14 08:00 53.66614 -16.43381 35418 ft 405 kts 270°
2026-04-14 08:00 53.67631 -16.52715 35392 ft 407 kts 270°
2026-04-14 08:01 53.68636 -16.62017 35393 ft 405 kts 270°
2026-04-14 08:01 53.69636 -16.71319 35396 ft 406 kts 270°
2026-04-14 08:02 53.70634 -16.80724 35409 ft 406 kts 270°
2026-04-14 08:02 53.71617 -16.89994 35370 ft 405 kts 269°
2026-04-14 08:03 53.72601 -16.99426 35421 ft 408 kts 269°
2026-04-14 08:03 53.73580 -17.08785 35391 ft 409 kts 269°
2026-04-14 08:04 53.74545 -17.18163 35347 ft 409 kts 270°
2026-04-14 08:04 53.75515 -17.27647 35333 ft 411 kts 269°
2026-04-14 08:05 53.76485 -17.37214 35376 ft 415 kts 270°
2026-04-14 08:05 53.77439 -17.46715 35370 ft 413 kts 270°
2026-04-14 08:05 53.77918 -17.51469 35478 ft 415 kts 269°
2026-04-14 08:06 53.78393 -17.56251 35408 ft 414 kts 270°
2026-04-14 08:06 53.79344 -17.65855 35383 ft 416 kts 269°
2026-04-14 08:07 53.80287 -17.75459 35363 ft 413 kts 269°
2026-04-14 08:07 53.81218 -17.85029 35358 ft 415 kts 268°
2026-04-14 08:08 53.82147 -17.94666 35349 ft 416 kts 269°
2026-04-14 08:08 53.83072 -18.04312 35343 ft 417 kts 269°
2026-04-14 08:09 53.83990 -18.14021 35336 ft 419 kts 269°
2026-04-14 08:09 53.84908 -18.23768 35340 ft 421 kts 269°
2026-04-14 08:10 53.85815 -18.33506 35334 ft 423 kts 269°
2026-04-14 08:10 53.86721 -18.43334 35333 ft 425 kts 269°
2026-04-14 08:11 53.87624 -18.53234 35329 ft 426 kts 269°
2026-04-14 08:11 53.88519 -18.63098 35323 ft 427 kts 269°
2026-04-14 08:12 53.89414 -18.73094 35323 ft 426 kts 268°
2026-04-14 08:12 53.90290 -18.82957 35326 ft 427 kts 268°
2026-04-14 08:13 53.91172 -18.92967 35309 ft 429 kts 268°
2026-04-14 08:13 53.92041 -19.02986 35317 ft 433 kts 268°
2026-04-14 08:14 53.92907 -19.13052 35295 ft 434 kts 268°
2026-04-14 08:14 53.93765 -19.23107 35331 ft 435 kts 268°
2026-04-14 08:15 53.94620 -19.33274 35248 ft 437 kts 269°
2026-04-14 08:15 53.95472 -19.43508 35300 ft 442 kts 269°
2026-04-14 08:16 53.96326 -19.53751 35250 ft 437 kts 269°
2026-04-14 08:16 53.97164 -19.64074 35260 ft 443 kts 269°
2026-04-14 08:17 53.97997 -19.74403 35303 ft 443 kts 268°
2026-04-14 08:17 53.98820 -19.84740 35264 ft 445 kts 268°
2026-04-14 08:18 53.99649 -19.95227 35292 ft 449 kts 268°
2026-04-14 08:18 54.00265 -20.05670 35224 ft 446 kts 265°
2026-04-14 08:19 54.00699 -20.16124 35291 ft 448 kts 265°
2026-04-14 08:19 54.01120 -20.26741 35263 ft 451 kts 265°
2026-04-14 08:20 54.01532 -20.37266 35283 ft 449 kts 265°
2026-04-14 08:20 54.01935 -20.47878 35208 ft 452 kts 265°
2026-04-14 08:21 54.02329 -20.58475 35222 ft 452 kts 265°
2026-04-14 08:21 54.02717 -20.69165 35222 ft 454 kts 265°
2026-04-14 08:22 54.03092 -20.79811 35218 ft 454 kts 265°
2026-04-14 08:22 54.03461 -20.90508 35236 ft 455 kts 265°
2026-04-14 08:23 54.03823 -21.01195 35217 ft 456 kts 265°
2026-04-14 08:23 54.04172 -21.11972 35228 ft 459 kts 265°
2026-04-14 08:24 54.04517 -21.22787 35219 ft 458 kts 265°
2026-04-14 08:24 54.04851 -21.33573 35269 ft 458 kts 265°
2026-04-14 08:25 54.05176 -21.44377 35240 ft 459 kts 265°
2026-04-14 08:25 54.05487 -21.55148 35227 ft 461 kts 266°
2026-04-14 08:26 54.05794 -21.65975 35226 ft 460 kts 265°
2026-04-14 08:26 54.06089 -21.76861 35204 ft 461 kts 265°
2026-04-14 08:27 54.06376 -21.87716 35204 ft 461 kts 265°
2026-04-14 08:27 54.06654 -21.98650 35230 ft 464 kts 265°
2026-04-14 08:28 54.06922 -22.09502 35176 ft 463 kts 265°
2026-04-14 08:28 54.07182 -22.20437 35213 ft 463 kts 265°
2026-04-14 08:29 54.07431 -22.31353 35259 ft 464 kts 265°
2026-04-14 08:29 54.07668 -22.42340 35176 ft 465 kts 265°
2026-04-14 08:30 54.07897 -22.53257 35222 ft 465 kts 265°
2026-04-14 08:30 54.08119 -22.64269 35212 ft 465 kts 266°
2026-04-14 08:31 54.08327 -22.75191 35234 ft 465 kts 265°
2026-04-14 08:31 54.08622 -22.91622 35195 ft 466 kts 265°
2026-04-14 08:32 54.08808 -23.02677 35198 ft 467 kts 265°
2026-04-14 08:32 54.08982 -23.13684 35169 ft 467 kts 265°
2026-04-14 08:33 54.09148 -23.24659 35181 ft 467 kts 265°
2026-04-14 08:33 54.09303 -23.35724 35183 ft 469 kts 265°
2026-04-14 08:34 54.09450 -23.46816 35163 ft 469 kts 266°
2026-04-14 08:34 54.09584 -23.57838 35181 ft 471 kts 266°
2026-04-14 08:35 54.09711 -23.68944 35192 ft 471 kts 265°
2026-04-14 08:35 54.09826 -23.80093 35163 ft 471 kts 265°
2026-04-14 08:36 54.09933 -23.91160 35177 ft 470 kts 265°
2026-04-14 08:36 54.10027 -24.02290 35171 ft 471 kts 265°
2026-04-14 08:37 54.10111 -24.13404 35158 ft 472 kts 265°
2026-04-14 08:37 54.10186 -24.24579 35157 ft 473 kts 265°
2026-04-14 08:38 54.10251 -24.35765 35142 ft 473 kts 265°
2026-04-14 08:38 54.10306 -24.46888 35148 ft 475 kts 265°
2026-04-14 08:39 54.10351 -24.58120 35156 ft 474 kts 265°
2026-04-14 08:39 54.10383 -24.69289 35116 ft 474 kts 265°
2026-04-14 08:40 54.10407 -24.80446 35143 ft 474 kts 265°
2026-04-14 08:40 54.10421 -24.91674 35134 ft 474 kts 265°
2026-04-14 08:41 54.10423 -25.02920 35121 ft 475 kts 265°
2026-04-14 08:41 54.10414 -25.14134 35124 ft 475 kts 265°
2026-04-14 08:42 54.10396 -25.25287 35124 ft 476 kts 265°
2026-04-14 08:42 54.10367 -25.36536 35116 ft 476 kts 265°
2026-04-14 08:43 54.10329 -25.47826 35104 ft 476 kts 265°
2026-04-14 08:43 54.10280 -25.59052 35112 ft 476 kts 265°
2026-04-14 08:44 54.10219 -25.70273 35110 ft 476 kts 264°
2026-04-14 08:44 54.10148 -25.81516 35103 ft 477 kts 264°
2026-04-14 08:45 54.10066 -25.92765 35108 ft 476 kts 264°
2026-04-14 08:45 54.09975 -26.03983 35099 ft 476 kts 265°
2026-04-14 08:46 54.09871 -26.15277 35101 ft 477 kts 265°
2026-04-14 08:46 54.09759 -26.26548 35075 ft 478 kts 265°
2026-04-14 08:47 54.09636 -26.37838 35087 ft 478 kts 265°
2026-04-14 08:47 54.09501 -26.49081 35069 ft 479 kts 265°
2026-04-14 08:48 54.09357 -26.60400 35071 ft 479 kts 265°
2026-04-14 08:48 54.09199 -26.71721 35071 ft 480 kts 264°
2026-04-14 08:49 54.09034 -26.83015 35073 ft 479 kts 264°
2026-04-14 08:49 54.08857 -26.94359 35053 ft 479 kts 264°
2026-04-14 08:50 54.08672 -27.05617 35059 ft 479 kts 264°
2026-04-14 08:50 54.08472 -27.16929 35054 ft 480 kts 264°
2026-04-14 08:51 54.08263 -27.28233 35053 ft 480 kts 264°
2026-04-14 08:51 54.08043 -27.39539 35055 ft 481 kts 264°
2026-04-14 08:52 54.07812 -27.50903 35041 ft 481 kts 265°
2026-04-14 08:52 54.07570 -27.62247 35054 ft 481 kts 265°
2026-04-14 08:53 54.07318 -27.73583 35039 ft 480 kts 264°
2026-04-14 08:53 54.07056 -27.84880 35033 ft 480 kts 264°
2026-04-14 08:54 54.06784 -27.96194 35020 ft 481 kts 264°
2026-04-14 08:54 54.06499 -28.07505 35028 ft 481 kts 264°
2026-04-14 08:55 54.06202 -28.18881 35025 ft 481 kts 264°
2026-04-14 08:55 54.05899 -28.30186 35013 ft 481 kts 264°
2026-04-14 08:56 54.05583 -28.41518 35021 ft 481 kts 264°
2026-04-14 08:56 54.05257 -28.52828 35002 ft 481 kts 265°
2026-04-14 08:57 54.04916 -28.64166 34981 ft 482 kts 265°
2026-04-14 08:57 54.04571 -28.75442 34976 ft 480 kts 264°
2026-04-14 08:58 54.04212 -28.86799 34993 ft 481 kts 264°
2026-04-14 08:58 54.03842 -28.98149 34982 ft 481 kts 264°
2026-04-14 08:59 54.03462 -29.09450 34992 ft 482 kts 265°
2026-04-14 08:59 54.03069 -29.20843 34968 ft 483 kts 264°
2026-04-14 09:00 54.02667 -29.32189 34992 ft 483 kts 264°
2026-04-14 09:00 54.02251 -29.43561 34935 ft 483 kts 264°
2026-04-14 09:01 54.01828 -29.54823 34951 ft 482 kts 265°
2026-04-14 09:01 54.01391 -29.66173 34972 ft 482 kts 264°
2026-04-14 09:02 54.00942 -29.77543 34923 ft 482 kts 264°
2026-04-14 09:02 54.00483 -29.88848 34971 ft 482 kts 264°
2026-04-14 09:03 54.00043 -30.00179 34942 ft 482 kts 266°
2026-04-14 09:03 53.99922 -30.11501 34975 ft 482 kts 268°
2026-04-14 09:04 53.99828 -30.22864 34894 ft 482 kts 268°
2026-04-14 09:04 53.99715 -30.34272 34936 ft 483 kts 268°
2026-04-14 09:05 53.99589 -30.45607 34929 ft 482 kts 268°
2026-04-14 09:05 53.99450 -30.56977 34914 ft 482 kts 268°
2026-04-14 09:06 53.99300 -30.68269 34943 ft 481 kts 267°
2026-04-14 09:06 53.99137 -30.79651 34951 ft 481 kts 267°
2026-04-14 09:07 53.98965 -30.90964 34931 ft 481 kts 268°
2026-04-14 09:07 53.98783 -31.02344 34935 ft 482 kts 268°
2026-04-14 09:08 53.98591 -31.13640 34908 ft 483 kts 268°
2026-04-14 09:08 53.98387 -31.25009 34920 ft 483 kts 268°
2026-04-14 09:09 53.98172 -31.36397 34931 ft 484 kts 268°
2026-04-14 09:09 53.97945 -31.47809 34929 ft 483 kts 268°
2026-04-14 09:10 53.97709 -31.59173 34947 ft 483 kts 268°
2026-04-14 09:10 53.97462 -31.70550 34927 ft 484 kts 267°
2026-04-14 09:11 53.97201 -31.81944 34959 ft 484 kts 268°
2026-04-14 09:11 53.96933 -31.93337 34932 ft 484 kts 268°
2026-04-14 09:12 53.96653 -32.04702 34937 ft 482 kts 268°
2026-04-14 09:12 53.96364 -32.16005 34987 ft 482 kts 268°
2026-04-14 09:13 53.96065 -32.27311 34939 ft 482 kts 268°
2026-04-14 09:13 53.95754 -32.38657 34967 ft 482 kts 268°
2026-04-14 09:14 53.95431 -32.49976 35064 ft 482 kts 268°
2026-04-14 09:14 53.95101 -32.61298 35004 ft 483 kts 268°
2026-04-14 09:15 53.94759 -32.72611 34995 ft 482 kts 267°
2026-04-14 09:15 53.94403 -32.83944 34993 ft 481 kts 268°
2026-04-14 09:16 53.94040 -32.95278 35002 ft 481 kts 268°
2026-04-14 09:16 53.93667 -33.06517 35030 ft 480 kts 268°
2026-04-14 09:17 53.93284 -33.17798 35060 ft 480 kts 268°
2026-04-14 09:17 53.92887 -33.29122 35019 ft 480 kts 268°
2026-04-14 09:18 53.92483 -33.40378 35069 ft 480 kts 268°
2026-04-14 09:18 53.92070 -33.51608 35053 ft 480 kts 268°
2026-04-14 09:19 53.91641 -33.62903 35054 ft 479 kts 268°
2026-04-14 09:19 53.91208 -33.74094 35077 ft 479 kts 268°
2026-04-14 09:20 53.90756 -33.85455 35102 ft 479 kts 268°
2026-04-14 09:20 53.90302 -33.96637 35069 ft 478 kts 268°
2026-04-14 09:21 53.89836 -34.07879 35073 ft 478 kts 268°
2026-04-14 09:21 53.89357 -34.19088 35139 ft 478 kts 268°
2026-04-14 09:22 53.88871 -34.30256 35178 ft 478 kts 268°
2026-04-14 09:22 53.88373 -34.41497 35210 ft 478 kts 268°
2026-04-14 09:23 53.87864 -34.52686 35133 ft 478 kts 268°
2026-04-14 09:23 53.87347 -34.63875 35128 ft 478 kts 268°
2026-04-14 09:24 53.86817 -34.75076 35202 ft 479 kts 268°
2026-04-14 09:24 53.86280 -34.86235 35148 ft 478 kts 268°
2026-04-14 09:25 53.85728 -34.97478 35206 ft 477 kts 268°
2026-04-14 09:25 53.85170 -35.08622 35200 ft 477 kts 268°
2026-04-14 09:26 53.84602 -35.19793 35133 ft 477 kts 268°
2026-04-14 09:26 53.84023 -35.30905 35201 ft 478 kts 268°
2026-04-14 09:27 53.83430 -35.42128 35185 ft 479 kts 268°
2026-04-14 09:27 53.82829 -35.53289 35186 ft 478 kts 268°
2026-04-14 09:28 53.82217 -35.64455 35209 ft 477 kts 268°
2026-04-14 09:28 53.81602 -35.75517 35238 ft 477 kts 267°
2026-04-14 09:29 53.80971 -35.86646 35201 ft 477 kts 267°
2026-04-14 09:29 53.80329 -35.97778 35245 ft 477 kts 267°
2026-04-14 09:30 53.79675 -36.08918 35256 ft 476 kts 267°
2026-04-14 09:30 53.79015 -36.20050 35274 ft 476 kts 267°
2026-04-14 09:31 53.78349 -36.31068 35249 ft 475 kts 267°
2026-04-14 09:31 53.77669 -36.42136 35272 ft 474 kts 267°
2026-04-14 09:32 53.76982 -36.53160 35277 ft 474 kts 267°
2026-04-14 09:33 53.75931 -36.69716 35298 ft 472 kts 267°
2026-04-14 09:33 53.75218 -36.80739 35290 ft 472 kts 266°
2026-04-14 09:34 53.74498 -36.91704 35322 ft 471 kts 266°
2026-04-14 09:34 53.73774 -37.02617 35302 ft 471 kts 267°
2026-04-14 09:35 53.73032 -37.13575 35342 ft 469 kts 267°
2026-04-14 09:35 53.72286 -37.24484 35327 ft 469 kts 267°
2026-04-14 09:36 53.71534 -37.35351 35327 ft 469 kts 267°
2026-04-14 09:36 53.70766 -37.46282 35340 ft 469 kts 267°
2026-04-14 09:37 53.69992 -37.57127 35351 ft 466 kts 267°
2026-04-14 09:37 53.69210 -37.67966 35339 ft 466 kts 266°
2026-04-14 09:38 53.68422 -37.78770 35349 ft 467 kts 266°
2026-04-14 09:38 53.67618 -37.89621 35373 ft 465 kts 266°
2026-04-14 09:39 53.66812 -38.00382 35367 ft 464 kts 266°
2026-04-14 09:39 53.65998 -38.11115 35419 ft 463 kts 266°
2026-04-14 09:40 53.65177 -38.21814 35386 ft 462 kts 266°
2026-04-14 09:40 53.64343 -38.32555 35425 ft 463 kts 266°
2026-04-14 09:41 53.63501 -38.43221 35417 ft 461 kts 267°
2026-04-14 09:41 53.62653 -38.53903 35437 ft 460 kts 267°
2026-04-14 09:42 53.61800 -38.64508 35419 ft 458 kts 266°
2026-04-14 09:42 53.60939 -38.75085 35470 ft 459 kts 266°
2026-04-14 09:43 53.60063 -38.85725 35433 ft 458 kts 266°
2026-04-14 09:43 53.59184 -38.96294 35455 ft 458 kts 266°
2026-04-14 09:44 53.58292 -39.06869 35465 ft 455 kts 266°
2026-04-14 09:44 53.57402 -39.17343 35443 ft 454 kts 266°
2026-04-14 09:45 53.56504 -39.27784 35461 ft 454 kts 266°
2026-04-14 09:45 53.55595 -39.38248 35459 ft 453 kts 266°
2026-04-14 09:46 53.54678 -39.48683 35470 ft 452 kts 267°
2026-04-14 09:46 53.53754 -39.59081 35482 ft 452 kts 267°
2026-04-14 09:47 53.52822 -39.69476 35487 ft 451 kts 266°
2026-04-14 09:47 53.51877 -39.79896 35486 ft 451 kts 266°
2026-04-14 09:48 53.50928 -39.90217 35523 ft 450 kts 266°
2026-04-14 09:48 53.49970 -40.00536 35495 ft 448 kts 266°
2026-04-14 09:49 53.48920 -40.10876 35532 ft 449 kts 265°
2026-04-14 09:49 53.47837 -40.21117 35517 ft 449 kts 265°
2026-04-14 09:50 53.46747 -40.31357 35540 ft 446 kts 266°
2026-04-14 09:50 53.45655 -40.41547 35497 ft 445 kts 266°
2026-04-14 09:51 53.44550 -40.51770 35525 ft 443 kts 266°
2026-04-14 09:51 53.43447 -40.61913 35534 ft 444 kts 266°
2026-04-14 09:52 53.42334 -40.72033 35537 ft 441 kts 265°
2026-04-14 09:52 53.41218 -40.82155 35546 ft 443 kts 265°
2026-04-14 09:53 53.40098 -40.92197 35545 ft 441 kts 265°
2026-04-14 09:53 53.38960 -41.02288 35551 ft 440 kts 265°
2026-04-14 09:54 53.37828 -41.12289 35562 ft 439 kts 265°
2026-04-14 09:54 53.36683 -41.22319 35570 ft 437 kts 265°
2026-04-14 09:55 53.35540 -41.32228 35575 ft 436 kts 265°
2026-04-14 09:55 53.34386 -41.42185 35606 ft 435 kts 265°
2026-04-14 09:56 53.33234 -41.52031 35589 ft 433 kts 265°
2026-04-14 09:56 53.32070 -41.61924 35604 ft 434 kts 265°
2026-04-14 09:57 53.30901 -41.71758 35573 ft 432 kts 264°
2026-04-14 09:57 53.29727 -41.81572 35606 ft 432 kts 264°
2026-04-14 09:58 53.28547 -41.91352 35595 ft 430 kts 264°
2026-04-14 09:58 53.27355 -42.01193 35599 ft 432 kts 264°
2026-04-14 09:59 53.26159 -42.10984 35630 ft 429 kts 264°
2026-04-14 09:59 53.24965 -42.20674 35624 ft 430 kts 264°
2026-04-14 10:00 53.23751 -42.30442 35617 ft 428 kts 264°
2026-04-14 10:00 53.22543 -42.40129 35632 ft 428 kts 264°
2026-04-14 10:01 53.21327 -42.49809 35635 ft 428 kts 263°
2026-04-14 10:01 53.20097 -42.59506 35630 ft 428 kts 264°
2026-04-14 10:02 53.18859 -42.69214 35638 ft 428 kts 263°
2026-04-14 10:02 53.17619 -42.78859 35655 ft 427 kts 263°
2026-04-14 10:03 53.16370 -42.88524 35638 ft 428 kts 263°
2026-04-14 10:03 53.15112 -42.98171 35645 ft 426 kts 263°
2026-04-14 10:04 53.13851 -43.07787 35648 ft 427 kts 263°
2026-04-14 10:04 53.12583 -43.17413 35650 ft 429 kts 263°
2026-04-14 10:05 53.11301 -43.27044 35651 ft 426 kts 263°
2026-04-14 10:05 53.10012 -43.36665 35653 ft 425 kts 263°
2026-04-14 10:06 53.08726 -43.46247 35660 ft 426 kts 263°
2026-04-14 10:06 53.07431 -43.55786 35560 ft 423 kts 263°
2026-04-14 10:07 53.06133 -43.65305 35631 ft 423 kts 262°
2026-04-14 10:07 53.04820 -43.74879 35669 ft 426 kts 262°
2026-04-14 10:08 53.03500 -43.84415 35676 ft 424 kts 262°
2026-04-14 10:08 53.02182 -43.93902 35670 ft 423 kts 262°
2026-04-14 10:09 53.00857 -44.03376 35685 ft 423 kts 262°
2026-04-14 10:09 52.99517 -44.12904 35692 ft 424 kts 262°
2026-04-14 10:10 52.98172 -44.22369 35697 ft 422 kts 262°
2026-04-14 10:10 52.96830 -44.31796 35703 ft 422 kts 262°
2026-04-14 10:11 52.95486 -44.41119 35701 ft 416 kts 262°
2026-04-14 10:11 52.94144 -44.50440 35677 ft 417 kts 262°
2026-04-14 10:12 52.92786 -44.59813 35685 ft 417 kts 262°
2026-04-14 10:12 52.91427 -44.69117 35703 ft 417 kts 261°
2026-04-14 10:13 52.90066 -44.78369 35692 ft 416 kts 261°
2026-04-14 10:13 52.88698 -44.87611 35726 ft 415 kts 262°
2026-04-14 10:14 52.87326 -44.96831 35708 ft 413 kts 262°